H1 CPF 2 NER 2024 4 5 9 096 01 glonass134 H2 1407501 9134 40315 2024 4 5 0 0 0 2024 4 8 23 45 0 900 1 1 0 0 0 1 H9 10 0 60405 0.00000 0 9700745.446 14542724.901 18627473.429 10 0 60405 900.00000 0 7510534.787 13576939.335 20288397.097 10 0 60405 1800.00000 0 5086690.805 12709817.495 21556822.312 10 0 60405 2700.00000 0 2481298.526 11981582.325 22407988.636 10 0 60405 3600.00000 0 -246103.985 11423025.216 22825157.942 10 0 60405 4500.00000 0 -3030732.307 11054206.812 22799954.269 10 0 60405 5400.00000 0 -5804986.141 10883621.921 22332546.943 10 0 60405 6300.00000 0 -8501005.222 10907864.873 21431671.949 10 0 60405 7200.00000 0 -11053246.352 11111811.167 20114489.259 10 0 60405 8100.00000 0 -13400975.644 11469309.825 18406276.706 10 0 60405 9000.00000 0 -15490572.660 11944359.432 16339964.062 10 0 60405 9900.00000 0 -17277550.022 12492720.241 13955514.161 10 0 60405 10800.00000 0 -18728203.221 13063895.729 11299161.249 10 0 60405 11700.00000 0 -19820820.240 13603400.672 8422519.926 10 0 60405 12600.00000 0 -20546398.725 14055219.751 5381581.312 10 0 60405 13500.00000 0 -20908839.204 14364351.700 2235615.953 10 0 60405 14400.00000 0 -20924605.188 14479329.522 -953994.472 10 0 60405 15300.00000 0 -20621864.054 14354607.668 -4124972.408 10 0 60405 16200.00000 0 -20039145.242 13952712.285 -7215381.060 10 0 60405 17100.00000 0 -19223573.478 13246060.681 -10164856.001 10 0 60405 18000.00000 0 -18228753.337 12218370.349 -12915805.312 10 0 60405 18900.00000 0 -17112396.755 10865595.820 -15414552.582 10 0 60405 19800.00000 0 -15933796.076 9196352.203 -17612398.596 10 0 60405 20700.00000 0 -14751251.753 7231806.755 -19466579.546 10 0 60405 21600.00000 0 -13619565.190 5005042.858 -20941102.369 10 0 60405 22500.00000 0 -12587703.896 2559923.565 -22007440.811 10 0 60405 23400.00000 0 -11696737.946 -50496.775 -22645079.193 10 0 60405 24300.00000 0 -10978134.410 -2765945.328 -22841894.420 10 0 60405 25200.00000 0 -10452480.468 -5521204.620 -22594370.302 10 0 60405 26100.00000 0 -10128687.150 -8248591.835 -21907641.826 10 0 60405 27000.00000 0 -10003704.857 -10880540.019 -20795370.441 10 0 60405 27900.00000 0 -10062760.045 -13352174.062 -19279454.611 10 0 60405 28800.00000 0 -10280100.481 -15603775.213 -17389582.995 10 0 60405 29700.00000 0 -10620215.292 -17583033.170 -15162640.331 10 0 60405 30600.00000 0 -11039476.490 -19246994.154 -12641978.638 10 0 60405 31500.00000 0 -11488131.418 -20563626.335 -9876568.614 10 0 60405 32400.00000 0 -11912561.426 -21512940.138 -6920048.026 10 0 60405 33300.00000 0 -12257711.498 -22087619.457 -3829685.480 10 0 60405 34200.00000 0 -12469588.858 -22293139.957 -665279.305 10 0 60405 35100.00000 0 -12497726.173 -22147371.731 2511987.814 10 0 60405 36000.00000 0 -12297506.698 -21679684.546 5640717.293 10 0 60405 36900.00000 0 -11832254.646 -20929594.131 8660464.728 10 0 60405 37800.00000 0 -11075003.825 -19945006.478 11512890.373 10 0 60405 38700.00000 0 -10009870.807 -18780133.336 14142869.260 10 0 60405 39600.00000 0 -8632975.065 -17493165.258 16499540.977 10 0 60405 40500.00000 0 -6952866.851 -16143798.290 18537280.304 10 0 60405 41400.00000 0 -4990443.572 -14790716.222 20216571.212 10 0 60405 42300.00000 0 -2778356.083 -13489132.188 21504768.323 10 0 60405 43200.00000 0 -359927.033 -12288491.016 22376731.729 10 0 60405 44100.00000 0 2212376.800 -11230427.403 22815323.071 10 0 60405 45000.00000 0 4878857.858 -10347064.832 22811752.860 10 0 60405 45900.00000 0 7574810.505 -9659726.487 22365771.414 10 0 60405 46800.00000 0 10232963.630 -9178112.832 21485698.259 10 0 60405 47700.00000 0 12786043.932 -8899981.549 20188287.559 10 0 60405 48600.00000 0 15169354.919 -8811344.888 18498429.998 10 0 60405 49500.00000 0 17323265.082 -8887177.905 16448694.608 10 0 60405 50400.00000 0 19195501.446 -9092609.525 14078717.236 10 0 60405 51300.00000 0 20743151.972 -9384547.627 11434445.632 10 0 60405 52200.00000 0 21934291.718 -9713670.408 8567254.389 10 0 60405 53100.00000 0 22749162.894 -10026700.013 5532946.193 10 0 60405 54000.00000 0 23180857.563 -10268861.518 2390658.792 10 0 60405 54900.00000 0 23235472.806 -10386421.676 -798300.393 10 0 60405 55800.00000 0 22931730.794 -10329197.669 -3971667.852 10 0 60405 56700.00000 0 22300079.501 -10052926.893 -7067460.223 10 0 60405 57600.00000 0 21381312.426 -9521394.486 -10025206.835 10 0 60405 58500.00000 0 20224766.760 -8708225.650 -12787152.039 10 0 60405 59400.00000 0 18886177.866 -7598264.458 -15299401.675 10 0 60405 60300.00000 0 17425282.756 -6188478.859 -17512989.333 10 0 60405 61200.00000 0 15903275.964 -4488352.436 -19384840.182 10 0 60405 62100.00000 0 14380227.120 -2519745.795 -20878612.768 10 0 60405 63000.00000 0 12912570.591 -316233.471 -21965402.262 10 0 60405 63900.00000 0 11550773.779 2078055.226 -22624291.935 10 0 60405 64800.00000 0 10337282.181 4610041.952 -22842743.229 10 0 60405 65700.00000 0 9304826.753 7219683.550 -22616818.327 10 0 60405 66600.00000 0 8475163.075 9842250.944 -21951232.702 10 0 60405 67500.00000 0 7858292.955 12410807.162 -20859238.508 10 0 60405 68400.00000 0 7452198.388 14858781.132 -19362342.977 10 0 60405 69300.00000 0 7243096.117 17122530.567 -17489868.972 10 0 60405 70200.00000 0 7206199.167 19143788.288 -15278367.699 10 0 60405 71100.00000 0 7306950.765 20871891.809 -12770896.051 10 0 60405 72000.00000 0 7502676.605 22265705.353 -10016173.383 10 0 60405 72900.00000 0 7744584.464 23295156.586 -7067634.410 10 0 60405 73800.00000 0 7980026.142 23942326.516 -3982396.595 10 0 60405 74700.00000 0 8154926.298 24202049.459 -820161.674 10 0 60405 75600.00000 0 8216276.267 24082000.180 2357928.060 10 0 60405 76500.00000 0 8114588.613 23602266.289 5490457.575 10 0 60405 77400.00000 0 7806210.086 22794424.902 8516909.549 10 0 60405 78300.00000 0 7255396.644 21700162.669 11378816.221 10 0 60405 79200.00000 0 6436064.053 20369496.704 14020871.872 10 0 60405 80100.00000 0 5333140.887 18858670.029 16391985.898 10 0 60405 81000.00000 0 3943466.881 17227808.216 18446257.628 10 0 60405 81900.00000 0 2276198.041 15538433.510 20143855.317 10 0 60405 82800.00000 0 352699.854 13850938.516 21451783.350 10 0 60405 83700.00000 0 -1794069.302 12222123.218 22344523.473 10 0 60405 84600.00000 0 -4120661.777 10702896.706 22804537.822 10 0 60405 85500.00000 0 -6574688.552 9336238.569 22822623.678 10 0 60406 0.00000 0 -9096750.116 8155504.709 22398112.230 10 0 60406 900.00000 0 -11622674.500 7183147.891 21538905.783 10 0 60406 1800.00000 0 -14085968.683 6429908.796 20261351.482 10 0 60406 2700.00000 0 -16420387.855 5894510.477 18589951.102 10 0 60406 3600.00000 0 -18562513.414 5563872.127 16556910.688 10 0 60406 4500.00000 0 -20454233.817 5413833.997 14201536.415 10 0 60406 5400.00000 0 -22045023.971 5410364.427 11569486.525 10 0 60406 6300.00000 0 -23293926.551 5511199.026 8711892.355 10 0 60406 7200.00000 0 -24171150.478 5667843.089 5684364.805 10 0 60406 8100.00000 0 -24659217.491 5827852.163 2545905.460 10 0 60406 9000.00000 0 -24753606.722 5937293.006 -642255.805 10 0 60406 9900.00000 0 -24462868.571 5943278.726 -3817872.675 10 0 60406 10800.00000 0 -23808202.172 5796468.162 -6918918.206 10 0 60406 11700.00000 0 -22822514.018 5453420.698 -9884818.243 10 0 60406 12600.00000 0 -21548998.072 4878703.819 -12657655.946 10 0 60406 13500.00000 0 -20039298.505 4046661.446 -15183321.632 10 0 60406 14400.00000 0 -18351334.358 2942765.978 -17412583.582 10 0 60406 15300.00000 0 -16546879.901 1564495.232 -19302057.393 10 0 60406 16200.00000 0 -14689004.637 -78303.628 -20815054.203 10 0 60406 17100.00000 0 -12839482.373 -1963578.832 -21922291.069 10 0 60406 18000.00000 0 -11056279.473 -4057760.146 -22602450.142 10 0 60406 18900.00000 0 -9391228.122 -6316936.877 -22842576.805 10 0 60406 19800.00000 0 -7887981.763 -8688477.450 -22638310.545 10 0 60406 20700.00000 0 -6580337.127 -11113021.804 -21993945.811 10 0 60406 21600.00000 0 -5490991.051 -13526762.601 -20922323.590 10 0 60406 22500.00000 0 -4630781.484 -15863919.641 -19444557.705 10 0 60406 23400.00000 0 -3998441.395 -18059304.345 -17589602.826 10 0 60406 24300.00000 0 -3580872.706 -20050868.011 -15393674.083 10 0 60406 25200.00000 0 -3353925.652 -21782128.817 -12899530.634 10 0 60406 26100.00000 0 -3283648.174 -23204377.974 -10155637.877 10 0 60406 27000.00000 0 -3327950.649 -24278575.045 -7215224.937 10 0 60406 27900.00000 0 -3438614.478 -24976855.554 -4135255.694 10 0 60406 28800.00000 0 -3563559.210 -25283590.130 -975332.982 10 0 60406 29700.00000 0 -3649272.608 -25195953.014 2203443.483 10 0 60406 30600.00000 0 -3643301.754 -24723977.885 5339644.275 10 0 60406 31500.00000 0 -3496701.091 -23890099.843 8372681.107 10 0 60406 32400.00000 0 -3166335.309 -22728203.334 11243960.063 10 0 60406 33300.00000 0 -2616941.106 -21282215.740 13897996.420 10 0 60406 34200.00000 0 -1822861.781 -19604304.706 16283471.000 10 0 60406 35100.00000 0 -769381.947 -17752753.272 18354209.116 10 0 60406 36000.00000 0 546394.115 -15789599.782 20070064.524 10 0 60406 36900.00000 0 2115158.482 -13778139.140 21397692.327 10 0 60406 37800.00000 0 3915528.018 -11780387.609 22311196.561 10 0 60406 38700.00000 0 5914682.441 -9854614.997 22792640.176 10 0 60406 39600.00000 0 8069488.488 -8053045.640 22832407.207 10 0 60406 40500.00000 0 10328066.612 -6419823.033 22429409.258 10 0 60406 41400.00000 0 12631738.268 -4989322.581 21591130.913 10 0 60406 42300.00000 0 14917275.611 -3784883.140 20333511.332 10 0 60406 43200.00000 0 17119362.284 -2818011.039 18680662.184 10 0 60406 44100.00000 0 19173164.337 -2088091.047 16664425.072 10 0 60406 45000.00000 0 21016904.703 -1582617.688 14323774.801 10 0 60406 45900.00000 0 22594333.448 -1277938.460 11704078.141 10 0 60406 46800.00000 0 23856989.393 -1140478.642 8856220.968 10 0 60406 47700.00000 0 24766156.603 -1128396.543 5835619.930 10 0 60406 48600.00000 0 25294431.493 -1193599.062 2701137.754 10 0 60406 49500.00000 0 25426832.480 -1284031.415 -486076.097 10 0 60406 50400.00000 0 25161403.427 -1346142.358 -3663795.468 10 0 60406 51300.00000 0 24509283.938 -1327418.207 -6769952.790 10 0 60406 52200.00000 0 23494242.674 -1178875.455 -9743873.282 10 0 60406 53100.00000 0 22151693.265 -857403.471 -12527481.537 10 0 60406 54000.00000 0 20527235.013 -327855.182 -15066454.703 10 0 60406 54900.00000 0 18674781.183 435205.277 -17311297.759 10 0 60406 55800.00000 0 16654355.496 1446173.749 -19218318.396 10 0 60406 56700.00000 0 14529651.441 2707553.517 -20750481.651 10 0 60406 57600.00000 0 12365458.769 4209615.531 -21878127.436 10 0 60406 58500.00000 0 10225066.587 5930585.646 -22579537.409 10 0 60406 59400.00000 0 8167752.677 7837350.364 -22841341.192 10 0 60406 60300.00000 0 6246464.111 9886650.548 -22658755.520 10 0 60406 61200.00000 0 4505785.347 12026711.975 -22035653.397 10 0 60406 62100.00000 0 2980276.994 14199243.498 -20984463.873 10 0 60406 63000.00000 0 1693252.249 16341718.542 -19525906.225 10 0 60406 63900.00000 0 656039.155 18389844.274 -17688565.450 10 0 60406 64800.00000 0 -132243.754 20280115.526 -15508318.798 10 0 60406 65700.00000 0 -684392.412 21952347.532 -13027625.583 10 0 60406 66600.00000 0 -1024318.243 23352082.946 -10294694.882 10 0 60406 67500.00000 0 -1185781.504 24432774.191 -7362547.636 10 0 60406 68400.00000 0 -1210712.221 25157651.910 -4287991.378 10 0 60406 69300.00000 0 -1147190.700 25501203.359 -1130527.157 10 0 60406 70200.00000 0 -1047173.239 25450200.910 2048790.815 10 0 60406 71100.00000 0 -964058.790 25004239.274 5188521.633 10 0 60406 72000.00000 0 -950198.498 24175760.218 8228008.871 10 0 60406 72900.00000 0 -1054452.096 22989564.433 11108535.133 10 0 60406 73800.00000 0 -1319893.020 21481830.969 13774439.183 10 0 60406 74700.00000 0 -1781757.891 19698684.618 16174175.530 10 0 60406 75600.00000 0 -2465726.001 17694369.807 18261297.492 10 0 60406 76500.00000 0 -3386601.062 15529105.485 19995346.087 10 0 60406 77400.00000 0 -4547451.149 13266708.330 21342628.609 10 0 60406 78300.00000 0 -5939244.297 10972081.112 22276872.560 10 0 60406 79200.00000 0 -7540997.115 8708668.572 22779742.535 10 0 60406 80100.00000 0 -9320432.927 6535984.887 22841209.763 10 0 60406 81000.00000 0 -11235125.060 4507314.144 22459766.329 10 0 60406 81900.00000 0 -13234080.849 2667678.694 21642478.539 10 0 60406 82800.00000 0 -15259703.371 1052159.771 20404876.586 10 0 60406 83700.00000 0 -17250051.731 -315359.244 18770680.493 10 0 60406 84600.00000 0 -19141307.557 -1422973.663 16771365.355 10 0 60406 85500.00000 0 -20870345.781 -2271028.592 14445572.056 10 0 60407 0.00000 0 -22377302.242 -2871867.740 11838373.174 10 0 60407 900.00000 0 -23608030.626 -3249069.695 9000405.352 10 0 60407 1800.00000 0 -24516342.176 -3436202.409 5986887.699 10 0 60407 2700.00000 0 -25065934.687 -3475149.435 2856540.461 10 0 60407 3600.00000 0 -25231925.178 -3414078.367 -329570.953 10 0 60407 4500.00000 0 -25001920.175 -3305139.151 -3509244.123 10 0 60407 5400.00000 0 -24376576.271 -3201991.710 -6620374.296 10 0 60407 6300.00000 0 -23369625.866 -3157270.184 -9602189.306 10 0 60407 7200.00000 0 -22007366.192 -3220094.075 -12396458.191 10 0 60407 8100.00000 0 -20327633.244 -3433734.643 -14948647.615 10 0 60407 9000.00000 0 -18378304.560 -3833538.002 -17209001.543 10 0 60407 9900.00000 0 -16215395.231 -4445194.938 -19133521.570 10 0 60407 10800.00000 0 -13900828.887 -5283432.127 -20684827.874 10 0 60407 11700.00000 0 -11499978.948 -6351180.786 -21832883.824 10 0 60407 12600.00000 0 -9079084.764 -7639257.922 -22555570.518 10 0 60407 13500.00000 0 -6702651.865 -9126573.089 -22839101.088 10 0 60407 14400.00000 0 -4430945.335 -10780851.016 -22678268.156 10 0 60407 15300.00000 0 -2317680.594 -12559838.578 -22076521.392 10 0 60407 16200.00000 0 -408006.665 -14412944.275 -21045875.546 10 0 60407 17100.00000 0 1263136.030 -16283240.487 -19606652.641 10 0 60407 18000.00000 0 2672217.521 -18109743.956 -17787065.037 10 0 60407 18900.00000 0 3807832.850 -19829878.812 -15622648.981 10 0 60407 19800.00000 0 4670902.861 -21382019.366 -13155560.757 10 0 60407 20700.00000 0 5274356.235 -22708007.051 -10433749.941 10 0 60407 21600.00000 0 5642309.117 -23755537.432 -7510026.192 10 0 60407 22500.00000 0 5808779.355 -24480318.992 -4441037.735 10 0 60407 23400.00000 0 5815991.227 -24847915.038 -1286181.060 10 0 60407 24300.00000 0 5712343.123 -24835193.439 1893537.684 10 0 60407 25200.00000 0 5550124.108 -24431325.068 5036668.433 10 0 60407 26100.00000 0 5383075.305 -23638290.399 8082488.690 10 0 60407 27000.00000 0 5263898.037 -22470873.815 10972159.398 10 0 60407 27900.00000 0 5241812.646 -20956145.970 13649844.354 10 0 60407 28800.00000 0 5360269.638 -19132455.335 16063773.028 10 0 60407 29700.00000 0 5654908.501 -17047969.853 18167227.730 10 0 60407 30600.00000 0 6151849.474 -14758827.799 19919437.420 10 0 60407 31500.00000 0 6866390.067 -12326972.734 21286361.954 10 0 60407 32400.00000 0 7802161.742 -9817760.282 22241352.351 10 0 60407 33300.00000 0 8950783.633 -7297433.839 22765674.589 10 0 60407 34200.00000 0 10292029.965 -4830571.912 22848886.542 10 0 60407 35100.00000 0 11794506.909 -2477611.339 22489059.948 10 0 60407 36000.00000 0 13416813.626 -292547.996 21692841.777 10 0 60407 36900.00000 0 15109142.059 1679090.039 20475351.978 10 0 60407 37800.00000 0 16815251.420 3401912.549 18859917.477 10 0 60407 38700.00000 0 18474737.146 4851910.345 16877645.233 10 0 60407 39600.00000 0 20025500.873 6017218.664 14566840.402 10 0 60407 40500.00000 0 21406318.594 6898367.703 11972278.910 10 0 60407 41400.00000 0 22559398.985 7508008.691 9144346.955 10 0 60407 42300.00000 0 23432823.196 7870126.081 6138063.318 10 0 60407 43200.00000 0 23982761.593 8018768.724 3012003.254 10 0 60407 44100.00000 0 24175371.690 7996353.779 -172854.531 10 0 60407 45000.00000 0 23988294.683 7851616.043 -3354334.071 10 0 60407 45900.00000 0 23411685.031 7637291.152 -6470296.138 10 0 60407 46800.00000 0 22448727.604 7407633.029 -9459873.800 10 0 60407 47700.00000 0 21115619.191 7215873.454 -12264682.950 10 0 60407 48600.00000 0 19441014.497 7111734.170 -14829981.924 10 0 60407 49500.00000 0 17464960.124 7139099.622 -17105755.533 10 0 60407 50400.00000 0 15237362.172 7333951.094 -19047700.798 10 0 60407 51300.00000 0 12816053.229 7722651.376 -20618094.250 10 0 60407 52200.00000 0 10264541.343 8320653.387 -21786523.632 10 0 60407 53100.00000 0 7649536.868 9131687.555 -22530470.107 10 0 60407 54000.00000 0 5038361.817 10147461.755 -22835730.639 10 0 60407 54900.00000 0 2496350.629 11347885.494 -22696673.753 10 0 60407 55800.00000 0 84350.761 12701807.569 -22116325.444 10 0 60407 56700.00000 0 -2143573.518 14168234.771 -21106285.460 10 0 60407 57600.00000 0 -4142140.122 15697979.072 -19686477.475 10 0 60407 58500.00000 0 -5876469.955 17235663.073 -17884739.743 10 0 60407 59400.00000 0 -7323264.932 18721998.910 -15736265.683 10 0 60407 60300.00000 0 -8471497.361 20096244.885 -13282906.426 10 0 60407 61200.00000 0 -9322585.294 21298737.125 -10572349.672 10 0 60407 62100.00000 0 -9890049.798 22273390.994 -7657191.248 10 0 60407 63000.00000 0 -10198671.396 22970068.609 -4593917.409 10 0 60407 63900.00000 0 -10283183.394 23346714.658 -1441817.356 10 0 60407 64800.00000 0 -10186558.591 23371172.626 1738153.542 10 0 60407 65700.00000 0 -9957962.290 23022606.746 4884538.746 10 0 60407 66600.00000 0 -9650457.874 22292471.376 7936552.285 10 0 60407 67500.00000 0 -9318561.043 21184987.979 10835235.915 10 0 60407 68400.00000 0 -9015744.741 19717109.980 13524580.816 10 0 60407 69300.00000 0 -8791998.587 17917976.577 15952593.598 10 0 60407 70200.00000 0 -8691544.296 15827877.219 18072287.571 10 0 60407 71100.00000 0 -8750802.176 13496768.267 19842581.454 10 0 60407 72000.00000 0 -8996693.602 10982401.424 21229089.271 10 0 60407 72900.00000 0 -9445350.851 8348139.314 22204786.917 10 0 60407 73800.00000 0 -10101289.169 5660546.303 22750542.841 10 0 60407 74700.00000 0 -10957077.349 2986852.147 22855502.318 10 0 60407 75600.00000 0 -11993522.747 392391.507 22517317.118 10 0 60407 76500.00000 0 -13180365.651 -2061876.122 21742214.819 10 0 60407 77400.00000 0 -14477456.792 -4321664.103 20544904.595 10 0 60407 78300.00000 0 -15836371.504 -6341378.936 18948319.222 10 0 60407 79200.00000 0 -17202395.399 -8085778.791 16983195.953 10 0 60407 80100.00000 0 -18516800.151 -9531200.402 14687502.146 10 0 60407 81000.00000 0 -19719314.942 -10666301.941 12105714.770 10 0 60407 81900.00000 0 -20750689.869 -11492289.593 9287966.166 10 0 60407 82800.00000 0 -21555242.637 -12022617.183 6289071.743 10 0 60407 83700.00000 0 -22083279.653 -12282170.807 3167458.271 10 0 60407 84600.00000 0 -22293287.180 -12305972.672 -15985.883 10 0 60407 85500.00000 0 -22153797.413 -12137459.395 -3199114.904 10 0 60408 0.00000 0 -21644848.080 -11826408.866 -6319758.501 10 0 60408 900.00000 0 -20758971.139 -11426605.125 -9316959.131 10 0 60408 1800.00000 0 -19501667.628 -10993343.006 -12132182.704 10 0 60408 2700.00000 0 -17891346.482 -10580880.361 -14710482.423 10 0 60408 3600.00000 0 -15958729.986 -10239948.801 -17001586.787 10 0 60408 4500.00000 0 -13745750.916 -10015430.582 -18960890.642 10 0 60408 5400.00000 0 -11303988.619 -9944301.779 -20550328.714 10 0 60408 6300.00000 0 -8692710.873 -10053929.867 -21739114.302 10 0 60408 7200.00000 0 -5976604.974 -10360797.994 -22504329.113 10 0 60408 8100.00000 0 -3223294.189 -10869709.419 -22831353.701 10 0 60408 9000.00000 0 -500744.150 -11573504.673 -22714131.553 10 0 60408 9900.00000 0 2125332.325 -12453301.884 -22155263.428 10 0 60408 10800.00000 0 4593964.250 -13479248.432 -21165931.969 10 0 60408 11700.00000 0 6851202.908 -14611750.625 -19765659.965 10 0 60408 12600.00000 0 8852100.621 -15803128.107 -17981908.679 10 0 60408 13500.00000 0 10562308.021 -16999622.326 -15849525.562 10 0 60408 14400.00000 0 11959226.305 -18143673.971 -13410053.251 10 0 60408 15300.00000 0 13032669.633 -19176373.536 -10710914.120 10 0 60408 16200.00000 0 13785013.338 -20039982.465 -7804486.648 10 0 60408 17100.00000 0 14230824.798 -20680419.831 -4747091.611 10 0 60408 18000.00000 0 14395995.064 -21049611.294 -1597907.514 10 0 60408 18900.00000 0 14316409.649 -21107603.130 1582164.312 10 0 60408 19800.00000 0 14036215.619 -20824353.964 4731663.859 10 0 60408 20700.00000 0 13605758.309 -20181130.300 7789744.375 10 0 60408 21600.00000 0 13079274.297 -19171448.174 10697330.765 10 0 60408 22500.00000 0 12512436.886 -17801521.877 13398243.499 10 0 60408 23400.00000 0 11959856.207 -16090200.676 15840267.818 10 0 60408 24300.00000 0 11472637.692 -14068395.265 17976149.078 10 0 60408 25200.00000 0 11096100.244 -11778016.256 19764496.376 10 0 60408 26100.00000 0 10867748.943 -9270466.778 21170578.107 10 0 60408 27000.00000 0 10815586.863 -6604749.341 22166994.868 10 0 60408 27900.00000 0 10956836.924 -3845262.762 22734217.043 10 0 60408 28800.00000 0 11297128.181 -1059377.888 22860976.455 10 0 60408 29700.00000 0 11830182.150 1685109.919 22544503.783 10 0 60408 30600.00000 0 12538014.390 4322547.956 21790605.834 10 0 60408 31500.00000 0 13391645.351 6791908.004 20613579.435 10 0 60408 32400.00000 0 14352293.293 9039080.525 19035961.457 10 0 60408 33300.00000 0 15373001.693 11018886.007 17088117.532 10 0 60408 34200.00000 0 16400634.829 12696719.067 14807675.158 10 0 60408 35100.00000 0 17378159.054 14049755.743 12238810.143 10 0 60408 36000.00000 0 18247114.272 15067672.178 9431398.617 10 0 60408 36900.00000 0 18950171.099 15752843.248 6440050.133 10 0 60408 37800.00000 0 19433664.584 16120011.756 3323040.368 10 0 60408 38700.00000 0 19649995.481 16195441.503 141164.670 10 0 60408 39600.00000 0 19559795.083 16015590.039 -3043463.990 10 0 60408 40500.00000 0 19133759.298 15625357.914 -6168647.441 10 0 60408 41400.00000 0 18354071.729 15075989.953 -9173338.891 10 0 60408 42300.00000 0 17215353.244 14422719.451 -11998857.102 10 0 60408 43200.00000 0 15725096.106 13722257.446 -14590052.129 10 0 60408 44100.00000 0 13903563.265 13030235.947 -16896397.846 10 0 60408 45000.00000 0 11783156.697 12398715.699 -18872988.299 10 0 60408 45900.00000 0 9407281.682 11873865.893 -20481417.475 10 0 60408 46800.00000 0 6828755.541 11493915.204 -21690525.034 10 0 60408 47700.00000 0 4107828.693 11287461.280 -22476993.761 10 0 60408 48600.00000 0 1309902.015 11272209.762 -22825788.069 10 0 60408 49500.00000 0 -1496963.173 11454195.046 -22730426.387 10 0 60408 50400.00000 0 -4244638.039 11827514.055 -22193083.880 10 0 60408 51300.00000 0 -6867514.103 12374582.276 -21224525.365 10 0 60408 52200.00000 0 -9304979.025 13066899.207 -19843871.632 10 0 60408 53100.00000 0 -11503678.687 13866288.952 -18078205.457 10 0 60408 54000.00000 0 -13419473.530 14726562.085 -15962026.476 10 0 60408 54900.00000 0 -15019010.330 15595527.572 -13536566.709 10 0 60408 55800.00000 0 -16280846.888 16417269.388 -10848980.869 10 0 60408 56700.00000 0 -17196085.860 17134591.918 -7951427.629 10 0 60408 57600.00000 0 -17768494.328 17691531.673 -4900059.782 10 0 60408 58500.00000 0 -18014106.844 18035830.486 -1753942.629 10 0 60408 59400.00000 0 -17960330.849 18121267.364 1426079.002 10 0 60408 60300.00000 0 -17644593.579 17909752.237 4578544.040 10 0 60408 61200.00000 0 -17112588.140 17373094.814 7642547.300 10 0 60408 62100.00000 0 -16416192.577 16494375.269 10558899.100 10 0 60408 63000.00000 0 -15611148.860 15268859.782 13271251.405 10 0 60408 63900.00000 0 -14754598.258 13704422.499 15727170.193 10 0 60408 64800.00000 0 -13902575.271 11821455.524 17879134.862 10 0 60408 65700.00000 0 -13107563.833 9652269.251 19685446.741 10 0 60408 66600.00000 0 -12416216.983 7240006.010 21111030.282 10 0 60408 67500.00000 0 -11867334.628 4637109.619 22128112.251 10 0 60408 68400.00000 0 -11490183.599 1903411.596 22716766.192 10 0 60408 69300.00000 0 -11303230.582 -896089.548 22865311.409 10 0 60408 70200.00000 0 -11313341.742 -3693666.638 22570558.083 10 0 60408 71100.00000 0 -11515484.044 -6421421.187 21837892.486 10 0 60408 72000.00000 0 -11892942.687 -9013855.585 20681198.907 10 0 60408 72900.00000 0 -12418047.762 -11410354.574 19122617.687 10 0 60408 73800.00000 0 -13053381.902 -13557473.386 17192141.753 10 0 60408 74700.00000 0 -13753420.219 -15410937.000 14927057.202 10 0 60408 75600.00000 0 -14466535.051 -16937266.256 12371236.701 10 0 60408 76500.00000 0 -15137281.948 -18114961.618 9574297.800 10 0 60408 77400.00000 0 -15708870.421 -18935193.452 6590641.483 10 0 60408 78300.00000 0 -16125714.244 -19401968.506 3478389.347 10 0 60408 79200.00000 0 -16335951.810 -19531764.520 298240.522 10 0 60408 80100.00000 0 -16293827.551 -19352647.923 -2887728.230 10 0 60408 81000.00000 0 -15961830.920 -18902912.045 -6017294.044 10 0 60408 81900.00000 0 -15312499.536 -18229294.403 -9029324.953 10 0 60408 82800.00000 0 -14329807.531 -17384850.042 -11864995.767 10 0 60408 83700.00000 0 -13010078.189 -16426573.073 -14468956.774 10 0 60408 84600.00000 0 -11362380.689 -15412869.392 -16790430.390 10 0 60408 85500.00000 0 -9408393.361 -14400989.880 -18784212.708 99